Location: *
(45.9500°N, 9.0833°E)
Time: 21:26:32
(UTC+00:00)

Cosmos 44 Rocket - Pass Details

Date: 03 March 2021
Orbit: 636 x 754 km, 65.1° (Epoch: 22 April)

Event Time Altitude Azimuth Distance (km) Brightness Sun altitude
Rises 18:20:33 0° 321° (NW) 3,211 7.4 -12.5°
Reaches altitude 10° 18:22:58 10° 319° (NW) 2,285 6.6 -12.9°
Maximum altitude 18:28:09 63° 239° (WSW) 837 3.9 -13.8°
Drops below altitude 10° 18:33:16 10° 159° (SSE) 2,252 5.7 -14.7°
Enters shadow 18:35:27 - 156° (SSE) 3,093 6.3 -15.1°
